Orbital Elements at Epoch 2459000.5 (2020-May-31.0) TDB
Reference: JPL 7 (heliocentric ecliptic J2000)
Element | Value | Uncertainty (1-sigma) | Units |
e | .2796981509533697 | 0.00022219 | |
a | .9956422741529997 | 7.186e-06 | au |
q | .7171629710613977 | 0.00021605 | au |
i | 1.618884528738582 | 0.00083511 | deg |
node | 254.9888207619839 | 0.0032908 | deg |
peri | 83.57845239408742 | 0.016527 | deg |
M | 246.2635662466528 | 0.079669 | deg |
tp | 2459115.143787363373 (2020-Sep-22.64378736) | 0.081546 | TDB |
period | 362.8719671333963 0.99 | 0.0039285 1.076e-05 | d yr |
n | .9920854532906355 | 1.0741e-05 | deg/d |
Q | 1.274121577244602 | 9.1959e-06 | au |
|
| | Orbit Determination Parameters
Additional Information
|